Location: Narrabri
(30.3170°S, 149.7830°E)
Time: 02:10:55
(UTC+11:00)

Envisat - Pass Details

Date: 11 October 2017
Orbit: 764 x 766 km, 98.2° (Epoch: 23 October)

Event Time Altitude Azimuth Distance (km) Brightness Sun altitude
Rises 21:40:46 0° 171° (S) 3,263 6.5 -31.6°
Reaches altitude 10° 21:43:06 10° 173° (S) 2,330 5.7 -32.0°
Enters shadow 21:45:26 27° 178° (S) 1,446 4.6 -32.5°
